IW3HBX-3 Weather Reports


time (UTC)temp
C
wind
direction
speed
KPH
gust
KPH
rain 1hr
cm
rain 24hr
cm
rain mn
cm
humidity
%
barometer
mb
20260505082449 17 77 0.0 0.0 0.00 0.00 0.00 75 1015.1
20260505081949 17 77 0.0 0.0 0.00 0.00 0.00 76 1015.1
20260505081449 16 77 0.0 1.6 0.00 0.00 0.00 76 1015.0
20260505080950 17 76 0.0 0.0 0.00 0.00 0.00 79 1015.1
20260505080450 17 76 0.0 1.6 0.00 0.00 0.00 78 1015.2
20260505075950 17 77 0.0 1.6 0.00 0.00 0.00 77 1015.2
20260505075450 16 76 0.0 1.6 0.00 0.00 0.00 78 1015.1
20260505074950 16 77 0.0 1.6 0.00 0.00 0.00 79 1015.1
20260505074450 17 77 0.0 1.6 0.00 0.00 0.00 79 1015.1
20260505073950 17 77 0.0 1.6 0.00 0.00 0.00 79 1015.0
20260505073450 16 77 0.0 1.6 0.00 0.00 0.00 80 1014.9
20260505072950 16 73 1.6 4.8 0.00 0.00 0.00 82 1015.0
20260505072450 16 67 0.0 1.6 0.00 0.00 0.00 84 1014.9
20260505071950 16 74 3.2 4.8 0.00 0.00 0.00 84 1014.9
20260505071451 16 73 3.2 8.0 0.00 0.00 0.00 84 1014.8
20260505070951 16 74 3.2 4.8 0.00 0.00 0.00 84 1014.6
20260505070451 16 61 3.2 3.2 0.00 0.00 0.00 85 1014.6
20260505065951 16 68 4.8 6.4 0.00 0.00 0.00 84 1014.5
20260505065451 16 67 8.0 11.3 0.00 0.00 0.00 83 1014.6
20260505064951 16 76 4.8 9.7 0.00 0.00 0.00 83 1014.7
20260505064451 16 73 3.2 6.4 0.00 0.00 0.00 83 1014.6
20260505063951 16 77 4.8 8.0 0.00 0.00 0.00 83 1014.7
20260505063451 16 63 4.8 8.0 0.00 0.00 0.00 83 1014.6
20260505062951 16 68 4.8 8.0 0.00 0.00 0.00 83 1014.6
20260505062451 16 70 6.4 8.0 0.00 0.00 0.00 83 1014.5
20260505061951 16 67 3.2 4.8 0.00 0.00 0.00 84 1014.5
20260505061451 16 64 4.8 9.7 0.00 0.00 0.00 84 1014.5
20260505060951 16 58 3.2 6.4 0.00 0.00 0.00 84 1014.6
20260505060452 16 86 4.8 6.4 0.00 0.00 0.00 84 1014.5
20260505055952 16 78 4.8 8.0 0.00 0.00 0.00 84 1014.5
20260505055452 16 68 1.6 4.8 0.00 0.00 0.00 85 1014.4
20260505054952 16 74 3.2 4.8 0.00 0.00 0.00 85 1014.3
20260505054452 16 67 4.8 9.7 0.00 0.00 0.00 85 1014.1
20260505053952 16 62 8.0 9.7 0.00 0.00 0.00 85 1014.1
20260505053452 16 63 4.8 8.0 0.00 0.00 0.00 85 1013.9
20260505052952 16 71 6.4 8.0 0.00 0.00 0.00 85 1014.0
20260505052452 16 63 8.0 12.9 0.00 0.00 0.00 86 1014.0
20260505051952 16 67 6.4 11.3 0.00 0.00 0.00 86 1014.0
20260505051452 16 64 4.8 8.0 0.00 0.00 0.00 86 1014.0
20260505050952 16 68 6.4 12.9 0.00 0.00 0.00 87 1014.0
20260505050453 16 61 4.8 8.0 0.00 0.00 0.00 87 1014.0
20260505041453 15 63 6.4 9.7 0.00 0.00 0.00 91 1014.0
20260505040953 15 64 6.4 8.0 0.00 0.00 0.00 92 1014.0
20260505040453 15 64 8.0 9.7 0.00 0.00 0.00 92 1014.0
20260505035954 15 61 4.8 8.0 0.00 0.00 0.00 92 1014.0
20260505035454 15 55 6.4 8.0 0.00 0.00 0.00 92 1014.0
20260505034954 15 66 4.8 8.0 0.00 0.00 0.00 92 1014.1
20260505034454 15 61 8.0 9.7 0.00 0.00 0.00 93 1014.1
20260505033954 15 65 4.8 9.7 0.00 0.00 0.00 93 1013.9
20260505033454 15 56 3.2 4.8 0.00 0.00 0.00 93 1014.0
20260505032954 15 62 4.8 8.0 0.00 0.00 0.00 93 1014.0
20260505032454 15 58 6.4 9.7 0.00 0.00 0.00 93 1014.1
20260505031954 15 36 1.6 6.4 0.00 0.00 0.00 93 1014.1
20260505031454 15 58 3.2 8.0 0.00 0.00 0.00 93 1014.1
20260505030954 15 61 1.6 3.2 0.00 0.00 0.00 93 1014.2
20260505030455 15 74 3.2 8.0 0.00 0.00 0.00 93 1014.2
20260505025955 15 72 3.2 6.4 0.00 0.00 0.00 93 1014.3
20260505025455 15 68 1.6 4.8 0.00 0.00 0.00 92 1014.3
20260505024955 15 79 4.8 8.0 0.00 0.00 0.00 92 1014.3
20260505024455 15 69 3.2 8.0 0.00 0.00 0.00 92 1014.3
20260505023955 15 61 0.0 1.6 0.00 0.00 0.00 92 1014.3
20260505023455 15 71 3.2 8.0 0.00 0.00 0.00 92 1014.3
20260505022955 15 66 1.6 3.2 0.00 0.00 0.00 92 1014.4
20260505022455 15 67 1.6 1.6 0.00 0.00 0.00 92 1014.4
20260505021955 15 70 3.2 4.8 0.00 0.00 0.00 92 1014.5
20260505021455 15 65 1.6 6.4 0.00 0.00 0.00 92 1014.5
20260505020955 15 71 1.6 4.8 0.00 0.00 0.00 91 1014.6
20260505020455 15 69 3.2 6.4 0.00 0.00 0.00 91 1014.7
20260505015956 15 76 1.6 4.8 0.00 0.00 0.00 90 1014.7
20260505015456 15 68 3.2 6.4 0.00 0.00 0.00 90 1014.7
20260505014956 15 65 4.8 8.0 0.00 0.00 0.00 89 1014.8
20260505014456 15 64 1.6 3.2 0.00 0.00 0.00 88 1014.7
20260505013956 15 76 1.6 6.4 0.00 0.00 0.00 88 1014.8
20260505013456 15 77 3.2 4.8 0.00 0.00 0.00 87 1014.7
20260505012956 15 79 3.2 8.0 0.00 0.00 0.00 86 1014.7
20260505012456 15 69 3.2 4.8 0.00 0.00 0.00 86 1014.7
20260505011956 15 65 3.2 8.0 0.00 0.00 0.00 86 1014.8
20260505011456 15 73 1.6 6.4 0.00 0.00 0.00 85 1014.8
20260505010955 15 67 1.6 3.2 0.00 0.00 0.00 85 1014.8
20260505010455 15 67 4.8 6.4 0.00 0.00 0.00 86 1014.9
20260505005955 15 72 4.8 6.4 0.00 0.00 0.00 86 1015.1
20260505005454 15 67 3.2 8.0 0.00 0.00 0.00 86 1015.3
20260505004954 15 76 4.8 6.4 0.00 0.00 0.00 85 1015.3
20260505004453 15 68 3.2 4.8 0.00 0.00 0.00 85 1015.5
20260505003953 15 68 3.2 4.8 0.00 0.00 0.00 85 1015.5
20260505003453 15 71 1.6 3.2 0.00 0.00 0.00 84 1015.5
20260505002952 15 71 0.0 1.6 0.00 0.00 0.00 84 1015.6
20260505002452 15 69 1.6 4.8 0.00 0.00 0.00 84 1015.6
20260505001951 15 60 3.2 4.8 0.00 0.00 0.00 84 1015.6
20260505001451 15 58 3.2 4.8 0.00 0.00 0.00 84 1015.6
20260505000950 15 53 3.2 4.8 0.00 0.00 0.00 83 1015.6
20260505000450 15 67 3.2 4.8 0.00 0.00 0.00 83 1015.7
20260504235950 15 70 1.6 3.2 0.00 0.00 0.00 82 1015.7
20260504235449 15 65 4.8 6.4 0.00 0.00 0.00 82 1015.7
20260504235235 15 66 3.2 6.4 0.00 0.00 0.00 80 1015.8
20260504234949 15 75 3.2 8.0 0.00 0.00 0.00 82 1015.8
20260504234448 15 69 4.8 8.0 0.00 0.00 0.00 81 1015.8
20260504233948 15 66 3.2 6.4 0.00 0.00 0.00 80 1015.8
20260504233448 15 78 4.8 6.4 0.00 0.00 0.00 79 1015.9
20260504232947 15 71 3.2 6.4 0.00 0.00 0.00 79 1016.0
20260504232447 15 65 3.2 4.8 0.00 0.00 0.00 78 1016.0
20260504231946 16 65 3.2 8.0 0.00 0.00 0.00 76 1016.1
20260504231446 16 68 3.2 6.4 0.00 0.00 0.00 76 1016.2
20260504230946 16 73 3.2 6.4 0.00 0.00 0.00 75 1016.3
20260504230447 16 72 3.2 8.0 0.00 0.00 0.00 75 1016.3
20260504225947 16 71 4.8 8.0 0.00 0.00 0.00 75 1016.4
20260504225447 16 66 4.8 8.0 0.00 0.00 0.00 75 1016.4
20260504224947 16 68 6.4 8.0 0.00 0.00 0.00 75 1016.4
20260504224447 16 71 4.8 9.7 0.00 0.00 0.00 74 1016.5
20260504223947 16 67 4.8 8.0 0.00 0.00 0.00 75 1016.4
20260504223447 16 64 3.2 6.4 0.00 0.00 0.00 75 1016.5
20260504222947 16 67 4.8 8.0 0.00 0.00 0.00 75 1016.6
20260504222447 16 65 4.8 6.4 0.00 0.00 0.00 74 1016.6
20260504221947 16 71 3.2 6.4 0.00 0.00 0.00 74 1016.5
20260504221447 16 66 4.8 4.8 0.00 0.00 0.00 73 1016.5
20260504220946 16 65 4.8 6.4 0.00 0.00 0.00 73 1016.6
20260504220446 16 66 3.2 4.8 0.00 0.00 0.00 72 1016.6
20260504215946 16 58 3.2 4.8 0.00 0.00 0.00 72 1016.6
20260504215445 16 63 4.8 6.4 0.00 0.00 0.00 71 1016.7
20260504214945 16 64 4.8 6.4 0.00 0.00 0.00 71 1016.6
20260504214444 16 62 4.8 6.4 0.00 0.00 0.00 70 1016.7
20260504213944 16 62 1.6 4.8 0.00 0.00 0.00 70 1016.6
20260504213444 16 51 3.2 4.8 0.00 0.00 0.00 69 1016.8
20260504213030 16 57 1.6 3.2 0.00 0.00 0.00 69 1016.7
20260504212943 16 57 1.6 3.2 0.00 0.00 0.00 69 1016.7
20260504212443 17 57 1.6 3.2 0.00 0.00 0.00 69 1016.7
20260504211942 17 61 0.0 1.6 0.00 0.00 0.00 68 1016.6
20260504210941 17 64 3.2 4.8 0.00 0.00 0.00 68 1016.6
20260504210441 17 58 3.2 4.8 0.00 0.00 0.00 68 1016.7
20260504205941 17 64 3.2 6.4 0.00 0.00 0.00 68 1016.6
20260504205440 17 65 0.0 3.2 0.00 0.00 0.00 68 1016.6
20260504204940 17 309 1.6 3.2 0.00 0.00 0.00 68 1016.7
20260504204449 17 345 3.2 4.8 0.00 0.00 0.00 67 1016.6
20260504203939 17 66 1.6 1.6 0.00 0.00 0.00 66 1016.5
20260504203439 17 108 0.0 1.6 0.00 0.00 0.00 65 1016.5
20260504202938 17 108 0.0 1.6 0.00 0.00 0.00 65 1016.4
20260504202438 18 108 1.6 3.2 0.00 0.00 0.00 64 1016.4
20260504201937 18 108 1.6 3.2 0.00 0.00 0.00 63 1016.3
20260504201437 18 108 1.6 1.6 0.00 0.00 0.00 63 1016.3
20260504200937 18 108 1.6 3.2 0.00 0.00 0.00 62 1016.3
20260504200436 18 108 0.0 1.6 0.00 0.00 0.00 62 1016.3
20260504195936 18 108 1.6 3.2 0.00 0.00 0.00 62 1016.4
20260504195435 18 108 3.2 3.2 0.00 0.00 0.00 61 1016.4
20260504194935 18 108 1.6 1.6 0.00 0.00 0.00 61 1016.4
20260504194434 18 108 0.0 1.6 0.00 0.00 0.00 61 1016.4
20260504193934 18 108 0.0 0.0 0.00 0.00 0.00 61 1016.3
20260504193434 18 108 0.0 0.0 0.00 0.00 0.00 61 1016.3
20260504192933 18 108 0.0 0.0 0.00 0.00 0.00 61 1016.3
20260504192433 18 108 0.0 1.6 0.00 0.00 0.00 62 1016.2
20260504191932 18 108 0.0 1.6 0.00 0.00 0.00 62 1016.2
20260504191432 18 103 0.0 1.6 0.00 0.00 0.00 62 1016.1
20260504190932 18 128 0.0 1.6 0.00 0.00 0.00 63 1016.1
20260504190432 18 102 1.6 1.6 0.00 0.00 0.00 63 1016.1
20260504185932 19 98 0.0 1.6 0.00 0.00 0.00 64 1015.9
20260504185430 19 90 0.0 1.6 0.00 0.00 0.00 64 1015.9
20260504184930 19 104 1.6 4.8 0.00 0.00 0.00 65 1015.9
20260504184430 19 106 0.0 1.6 0.00 0.00 0.00 67 1015.8
20260504183929 19 103 1.6 4.8 0.00 0.00 0.00 68 1015.8
20260504183429 19 96 1.6 3.2 0.00 0.00 0.00 68 1015.9
20260504182929 19 57 0.0 1.6 0.00 0.00 0.00 68 1015.8
20260504182429 19 69 1.6 3.2 0.00 0.00 0.00 67 1015.9
20260504181929 20 96 1.6 3.2 0.00 0.00 0.00 67 1015.8
20260504181429 20 191 1.6 3.2 0.00 0.00 0.00 66 1015.7
20260504180929 20 110 1.6 3.2 0.00 0.00 0.00 66 1015.7
20260504180429 20 176 1.6 4.8 0.00 0.00 0.00 65 1015.7
20260504175929 20 63 1.6 4.8 0.00 0.00 0.00 64 1015.7
20260504175428 20 130 3.2 4.8 0.00 0.00 0.00 64 1015.5
20260504174928 20 110 3.2 4.8 0.00 0.00 0.00 63 1015.6
20260504173928 21 86 3.2 4.8 0.00 0.00 0.00 61 1015.5
20260504173428 21 46 1.6 3.2 0.00 0.00 0.00 60 1015.6
20260504172928 21 83 3.2 4.8 0.00 0.00 0.00 59 1015.6
20260504172428 21 88 3.2 4.8 0.00 0.00 0.00 59 1015.6
20260504171928 21 78 3.2 6.4 0.00 0.00 0.00 59 1015.5
20260504171428 21 64 3.2 4.8 0.00 0.00 0.00 58 1015.6
20260504170928 21 98 3.2 4.8 0.00 0.00 0.00 57 1015.6
20260504170428 21 113 1.6 4.8 0.00 0.00 0.00 56 1015.6
20260504160426 23 84 3.2 6.4 0.00 0.00 0.00 47 1015.8
20260504150925 23 101 3.2 4.8 0.00 0.00 0.00 55 1015.8
20260504150425 24 95 4.8 6.4 0.00 0.00 0.00 55 1015.8
20260504140925 24 66 3.2 8.0 0.00 0.00 0.00 49 1016.1
20260504140424 24 128 1.6 3.2 0.00 0.00 0.00 50 1016.1
20260504130423 25 58 0.0 1.6 0.00 0.00 0.00 47 1016.5
20260504110421 23 29 4.8 9.7 0.00 0.00 0.00 50 1017.4
20260504100420 22 66 6.4 9.7 0.00 0.00 0.00 52 1018.1